Weather History for KCRS - May, 2013

Change the Weather History Date:

Sunday, May 26, 2013

  Actual Average (KACT) Record (KACT)
Temperature  
Mean Temperature 80 °F 77 °F  
Max Temperature 88 °F 87 °F 98 °F (1904)
Min Temperature 73 °F 67 °F 54 °F (1947)
Degree Days  
Heating Degree Days 0 0  
Month to date heating degree days 4  
Since 1 July heating degree days 2140  
Cooling Degree Days 15 12  
Month to date cooling degree days 234  
Year to date cooling degree days 388  
Growing Degree Days 30 (Base 50)    
Moisture  
Dew Point 70 °F    
Average Humidity 77    
Maximum Humidity 94    
Minimum Humidity 53    
Precipitation  
Precipitation 0.09 in 0.14 in 3.29 in (2007)
Month to date precipitation 3.57  
Year to date precipitation 14.16  
Sea Level Pressure  
Sea Level Pressure 30.06 in    
Wind  
Wind Speed 9 mph (SSE)    
Max Wind Speed 18 mph    
Max Gust Speed 23 mph    
Visibility 7 miles    
Events      
T = Trace of Precipitation, MM = Missing Value Source: NWS Daily Summary

Daily Weather History Graph

Daily Weather History Graph

Search for Another Location

Airport or City:

Trip Planner

Search our weather history database for the weather conditions in past years. The results will help you decide how hot, cold, wet, or windy it might be!

Date:

Astronomy

May. 26, 2013 Rise Set
Actual Time 6:22 AM CDT 8:23 PM CDT
Civil Twilight 5:54 AM CDT 8:51 PM CDT
Nautical Twilight 5:21 AM CDT 9:24 PM CDT
Astronomical Twilight 4:45 AM CDT 10:00 PM CDT
Moon 10:13 PM CDT (5/26) 7:51 AM CDT (5/26)
Length of Visible Light 14h 56m
Length of Day
14h 01m
Waning Gibbous, 96% of the Moon is Illuminated
May 26
Waning Gibbous
May 31
Last Quarter
Jun 8
New
Jun 16
First Quarter
Jun 23
Full

Hourly Weather History & Observations

Time (CDT) Temp. Heat Index Dew Point Humidity Pressure Visibility Wind Dir Wind Speed Gust Speed Precip Events Conditions
12:53 AM 73.0 °F - 69.1 °F 87% 30.09 in 8.0 mi SSE 4.6 mph - N/A   Mostly Cloudy
1:53 AM 73.0 °F - 68.0 °F 84% 30.08 in 7.0 mi South 5.8 mph - N/A   Mostly Cloudy
2:21 AM 73.4 °F - 69.8 °F 88% 30.09 in 7.0 mi South 6.9 mph - N/A   Overcast
2:36 AM 73.4 °F - 69.8 °F 88% 30.08 in 8.0 mi South 6.9 mph - N/A   Overcast
2:53 AM 73.0 °F - 69.1 °F 87% 30.06 in 8.0 mi SSE 8.1 mph - N/A   Overcast
3:08 AM 73.4 °F - 69.8 °F 88% 30.06 in 7.0 mi SE 9.2 mph - 0.01 in   Overcast
3:53 AM 73.0 °F - 70.0 °F 90% 30.07 in 7.0 mi South 6.9 mph - 0.01 in   Overcast
4:53 AM 73.0 °F - 70.0 °F 90% 30.08 in 6.0 mi South 4.6 mph - 0.01 in   Overcast
5:53 AM 73.0 °F - 71.1 °F 93% 30.07 in 4.0 mi SSE 9.2 mph - 0.00 in   Overcast
6:51 AM 73.4 °F - 71.6 °F 94% 30.09 in 2.5 mi SSE 9.2 mph - N/A   Mostly Cloudy
6:53 AM 73.0 °F - 71.1 °F 93% 30.07 in 2.5 mi SSE 9.2 mph - N/A   Mostly Cloudy
7:02 AM 73.4 °F - 71.6 °F 94% 30.09 in 3.0 mi SSE 10.4 mph - N/A   Mostly Cloudy
7:13 AM 73.4 °F - 71.6 °F 94% 30.09 in 3.0 mi SSE 11.5 mph - N/A   Overcast
7:53 AM 73.9 °F - 71.1 °F 91% 30.09 in 3.0 mi SSE 11.5 mph - 0.01 in   Overcast
8:13 AM 73.4 °F - 71.6 °F 94% 30.10 in 3.0 mi SSE 12.7 mph - N/A   Overcast
8:53 AM 75.0 °F - 71.1 °F 87% 30.08 in 3.0 mi SSE 10.4 mph - N/A   Mostly Cloudy
9:06 AM 75.2 °F - 71.6 °F 89% 30.10 in 4.0 mi SSE 10.4 mph - N/A   Mostly Cloudy
9:33 AM 75.2 °F - 71.6 °F 89% 30.11 in 4.0 mi SSE 13.8 mph - N/A   Haze
9:53 AM 77.0 °F - 71.1 °F 82% 30.10 in 5.0 mi SSE 12.7 mph - N/A   Haze
10:34 AM 78.8 °F - 71.6 °F 78% 30.11 in 6.0 mi North - - 0.01 in   Haze
10:53 AM 80.1 °F 83.2 °F 70.0 °F 71% 30.09 in 7.0 mi SSE 17.3 mph - 0.01 in   Unknown
11:10 AM 80.6 °F 83.9 °F 69.8 °F 70% 30.10 in 8.0 mi South 17.3 mph 23.0 mph N/A   Mostly Cloudy
11:20 AM 80.6 °F 83.9 °F 69.8 °F 70% 30.09 in 9.0 mi SSE 17.3 mph - N/A   Scattered Clouds
11:53 AM 82.9 °F 87.0 °F 70.0 °F 65% 30.07 in 9.0 mi SSE 13.8 mph - N/A   Partly Cloudy
12:53 PM 84.9 °F 88.8 °F 69.1 °F 59% 30.06 in 10.0 mi South 18.4 mph - N/A   Partly Cloudy
1:53 PM 87.1 °F 91.3 °F 69.1 °F 55% 30.04 in 10.0 mi SSE 16.1 mph 20.7 mph 0.01 in   Partly Cloudy
2:53 PM 87.1 °F 90.6 °F 68.0 °F 53% 30.03 in 10.0 mi South 16.1 mph - 0.01 in   Overcast
3:53 PM 86.0 °F 88.8 °F 66.9 °F 53% 30.01 in 10.0 mi South 15.0 mph - N/A   Partly Cloudy
4:53 PM 87.1 °F 90.6 °F 68.0 °F 53% 29.99 in 10.0 mi South 13.8 mph 20.7 mph 0.01 in   Partly Cloudy
5:53 PM 86.0 °F 88.8 °F 66.9 °F 53% 29.98 in 10.0 mi South 12.7 mph 21.9 mph N/A   Scattered Clouds
6:53 PM 86.0 °F 88.8 °F 66.9 °F 53% 29.96 in 10.0 mi South 10.4 mph - N/A   Partly Cloudy
7:53 PM 82.9 °F 85.4 °F 66.9 °F 58% 29.95 in 10.0 mi South 10.4 mph - 0.01 in   Clear
8:53 PM 79.0 °F - 68.0 °F 69% 29.96 in 10.0 mi SSE 6.9 mph - N/A   Scattered Clouds
9:53 PM 80.1 °F 83.2 °F 70.0 °F 71% 29.99 in 9.0 mi SE 9.2 mph - N/A   Overcast
10:53 PM 78.1 °F - 70.0 °F 76% 30.01 in 8.0 mi SE 9.2 mph - 0.01 in   Clear
11:53 PM 77.0 °F - 69.1 °F 76% 30.01 in 8.0 mi SSE 11.5 mph - N/A   Clear